| time (UTC) | temp C | wind direction | speed KPH | gust KPH | rain 1hr cm | rain 24hr cm | rain mn cm | humidity % | barometer mb |
| 20260502210003 | 17 | 29 | 0.0 | 1.6 | 0.00 | 0.00 | 0.00 | 87 | 1018.7 |
| 20260502205524 | 17 | 31 | 0.0 | 1.6 | 0.00 | 0.00 | 0.00 | 87 | 1018.8 |
| 20260502205003 | 17 | 46 | 0.0 | 1.6 | 0.00 | 0.00 | 0.00 | 88 | 1018.7 |
| 20260502204504 | 17 | 39 | 0.0 | 3.2 | 0.00 | 0.00 | 0.00 | 88 | 1018.7 |
| 20260502204003 | 17 | 38 | 0.0 | 3.2 | 0.00 | 0.00 | 0.00 | 88 | 1018.6 |
| 20260502203503 | 17 | 0 | 0.0 | 0.0 | 0.00 | 0.00 | 0.00 | 88 | 1018.6 |
| 20260502203004 | 17 | 16 | 0.0 | 1.6 | 0.00 | 0.00 | 0.00 | 88 | 1018.5 |
| 20260502202503 | 17 | 15 | 0.0 | 1.6 | 0.00 | 0.00 | 0.00 | 88 | 1018.6 |
| 20260502202004 | 17 | 14 | 0.0 | 1.6 | 0.00 | 0.00 | 0.00 | 88 | 1018.4 |
| 20260502201503 | 18 | 26 | 0.0 | 1.6 | 0.00 | 0.00 | 0.00 | 88 | 1018.4 |
| 20260502201003 | 18 | 31 | 0.0 | 4.8 | 0.00 | 0.00 | 0.00 | 88 | 1018.3 |
| 20260502200503 | 18 | 29 | 0.0 | 4.8 | 0.00 | 0.00 | 0.00 | 88 | 1018.3 |
| 20260502200003 | 18 | 30 | 0.0 | 4.8 | 0.00 | 0.00 | 0.00 | 88 | 1018.2 |
| 20260502195503 | 18 | 62 | 0.0 | 3.2 | 0.00 | 0.00 | 0.00 | 88 | 1018.3 |
| 20260502195004 | 18 | 72 | 0.0 | 3.2 | 0.00 | 0.00 | 0.00 | 88 | 1018.1 |
| 20260502194503 | 18 | 77 | 0.0 | 3.2 | 0.00 | 0.00 | 0.00 | 88 | 1018.1 |
| 20260502194003 | 18 | 45 | 0.0 | 6.4 | 0.00 | 0.00 | 0.00 | 88 | 1018.1 |
| 20260502193504 | 18 | 39 | 0.0 | 6.4 | 0.00 | 0.00 | 0.00 | 88 | 1018.0 |
| 20260502193003 | 18 | 47 | 0.0 | 6.4 | 0.00 | 0.00 | 0.00 | 88 | 1018.0 |
| 20260502192504 | 18 | 53 | 1.6 | 8.0 | 0.00 | 0.00 | 0.00 | 88 | 1018.0 |
| 20260502192003 | 18 | 48 | 1.6 | 8.0 | 0.00 | 0.00 | 0.00 | 88 | 1018.0 |
| 20260502191503 | 18 | 31 | 1.6 | 9.7 | 0.00 | 0.00 | 0.00 | 88 | 1018.0 |
| 20260502191003 | 18 | 34 | 3.2 | 11.3 | 0.00 | 0.00 | 0.00 | 88 | 1018.1 |
| 20260502190503 | 18 | 40 | 3.2 | 11.3 | 0.00 | 0.00 | 0.00 | 88 | 1018.0 |
| 20260502190004 | 19 | 41 | 1.6 | 9.7 | 0.00 | 0.00 | 0.00 | 88 | 1018.0 |
| 20260502185503 | 19 | 47 | 1.6 | 9.7 | 0.00 | 0.00 | 0.00 | 87 | 1018.1 |
| 20260502185004 | 19 | 43 | 1.6 | 9.7 | 0.00 | 0.00 | 0.00 | 87 | 1018.1 |
| 20260502184524 | 19 | 33 | 3.2 | 14.5 | 0.00 | 0.00 | 0.00 | 87 | 1018.0 |
| 20260502184003 | 19 | 34 | 6.4 | 16.1 | 0.00 | 0.00 | 0.00 | 87 | 1017.9 |
| 20260502183503 | 20 | 36 | 6.4 | 16.1 | 0.00 | 0.00 | 0.00 | 85 | 1017.8 |
| 20260502182503 | 20 | 33 | 6.4 | 14.5 | 0.00 | 0.00 | 0.00 | 85 | 1018.0 |
| 20260502182025 | 20 | 34 | 6.4 | 14.5 | 0.00 | 0.00 | 0.00 | 83 | 1018.1 |
| 20260502181524 | 20 | 33 | 6.4 | 16.1 | 0.00 | 0.00 | 0.00 | 85 | 1017.9 |
| 20260502181025 | 20 | 34 | 8.0 | 16.1 | 0.00 | 0.00 | 0.00 | 83 | 1017.8 |
| 20260502180503 | 20 | 36 | 6.4 | 16.1 | 0.00 | 0.00 | 0.00 | 82 | 1017.9 |
| 20260502170503 | 21 | 33 | 9.7 | 20.9 | 0.00 | 0.00 | 0.00 | 75 | 1017.8 |
| 20260502164003 | 21 | 35 | 6.4 | 19.3 | 0.00 | 0.00 | 0.00 | 75 | 1018.0 |
| 20260502163524 | 21 | 35 | 6.4 | 17.7 | 0.00 | 0.00 | 0.00 | 75 | 1018.1 |
| 20260502163003 | 22 | 33 | 4.8 | 17.7 | 0.00 | 0.00 | 0.00 | 75 | 1018.3 |
| 20260502162503 | 22 | 30 | 4.8 | 12.9 | 0.00 | 0.00 | 0.00 | 74 | 1018.1 |
| 20260502162003 | 22 | 34 | 6.4 | 16.1 | 0.00 | 0.00 | 0.00 | 75 | 1018.5 |
| 20260502161503 | 22 | 39 | 6.4 | 16.1 | 0.00 | 0.00 | 0.00 | 74 | 1018.5 |
| 20260502161003 | 22 | 41 | 4.8 | 14.5 | 0.00 | 0.00 | 0.00 | 74 | 1018.3 |
| 20260502160503 | 22 | 64 | 1.6 | 9.7 | 0.00 | 0.00 | 0.00 | 72 | 1018.5 |
| 20260502152003 | 22 | 38 | 4.8 | 16.1 | 0.00 | 0.00 | 0.00 | 74 | 1019.1 |
| 20260502151503 | 22 | 32 | 4.8 | 11.3 | 0.00 | 0.00 | 0.00 | 74 | 1019.1 |
| 20260502151003 | 21 | 35 | 3.2 | 8.0 | 0.00 | 0.00 | 0.00 | 75 | 1019.3 |
| 20260502150503 | 21 | 36 | 4.8 | 14.5 | 0.00 | 0.00 | 0.00 | 75 | 1019.5 |
| 20260502130503 | 21 | 94 | 1.6 | 8.0 | 0.00 | 0.00 | 0.00 | 77 | 1020.6 |
| 20260502123503 | 21 | 27 | 3.2 | 9.7 | 0.00 | 0.00 | 0.00 | 77 | 1020.8 |
| 20260502123004 | 21 | 31 | 4.8 | 11.3 | 0.00 | 0.00 | 0.00 | 77 | 1020.8 |
| 20260502122503 | 21 | 27 | 3.2 | 11.3 | 0.00 | 0.00 | 0.00 | 77 | 1020.8 |
| 20260502122004 | 21 | 22 | 3.2 | 12.9 | 0.00 | 0.00 | 0.00 | 75 | 1021.0 |
| 20260502121503 | 21 | 28 | 4.8 | 12.9 | 0.00 | 0.00 | 0.00 | 75 | 1020.8 |
| 20260502121003 | 21 | 33 | 4.8 | 14.5 | 0.00 | 0.00 | 0.00 | 77 | 1021.0 |
| 20260502120503 | 21 | 30 | 6.4 | 14.5 | 0.00 | 0.00 | 0.00 | 77 | 1020.8 |
| 20260502115524 | 21 | 34 | 6.4 | 14.5 | 0.00 | 0.00 | 0.00 | 75 | 1021.1 |
| 20260502115003 | 21 | 34 | 6.4 | 12.9 | 0.00 | 0.00 | 0.00 | 75 | 1021.0 |
| 20260502114503 | 21 | 31 | 6.4 | 12.9 | 0.00 | 0.00 | 0.00 | 75 | 1021.1 |
| 20260502114003 | 21 | 31 | 6.4 | 12.9 | 0.00 | 0.00 | 0.00 | 77 | 1021.2 |
| 20260502113503 | 21 | 32 | 6.4 | 14.5 | 0.00 | 0.00 | 0.00 | 77 | 1021.2 |
| 20260502113003 | 21 | 32 | 4.8 | 14.5 | 0.00 | 0.00 | 0.00 | 77 | 1021.4 |
| 20260502112503 | 21 | 34 | 6.4 | 17.7 | 0.00 | 0.00 | 0.00 | 77 | 1021.4 |
| 20260502112004 | 21 | 33 | 8.0 | 17.7 | 0.00 | 0.00 | 0.00 | 77 | 1021.5 |
| 20260502111524 | 21 | 30 | 6.4 | 16.1 | 0.00 | 0.00 | 0.00 | 77 | 1021.5 |
| 20260502111004 | 21 | 33 | 8.0 | 17.7 | 0.00 | 0.00 | 0.00 | 77 | 1021.4 |
| 20260502110504 | 21 | 36 | 8.0 | 17.7 | 0.00 | 0.00 | 0.00 | 77 | 1021.4 |
| 20260502110003 | 21 | 34 | 8.0 | 17.7 | 0.00 | 0.00 | 0.00 | 77 | 1021.5 |
| 20260502105503 | 21 | 33 | 8.0 | 17.7 | 0.00 | 0.00 | 0.00 | 77 | 1021.5 |
| 20260502105003 | 21 | 31 | 4.8 | 16.1 | 0.00 | 0.00 | 0.00 | 75 | 1021.6 |
| 20260502104503 | 21 | 31 | 6.4 | 19.3 | 0.00 | 0.00 | 0.00 | 75 | 1021.7 |
| 20260502104003 | 21 | 31 | 8.0 | 19.3 | 0.00 | 0.00 | 0.00 | 74 | 1021.7 |
| 20260502103503 | 21 | 32 | 8.0 | 20.9 | 0.00 | 0.00 | 0.00 | 74 | 1021.6 |
| 20260502103003 | 21 | 34 | 8.0 | 20.9 | 0.00 | 0.00 | 0.00 | 75 | 1021.6 |
| 20260502102525 | 21 | 30 | 6.4 | 14.5 | 0.00 | 0.00 | 0.00 | 75 | 1021.7 |
| 20260502102003 | 21 | 29 | 6.4 | 17.7 | 0.00 | 0.00 | 0.00 | 75 | 1021.7 |
| 20260502101504 | 21 | 29 | 6.4 | 17.7 | 0.00 | 0.00 | 0.00 | 75 | 1021.7 |
| 20260502101004 | 21 | 32 | 6.4 | 17.7 | 0.00 | 0.00 | 0.00 | 75 | 1021.8 |
| 20260502100504 | 21 | 40 | 6.4 | 17.7 | 0.00 | 0.00 | 0.00 | 75 | 1021.9 |
| 20260502091503 | 20 | 37 | 3.2 | 11.3 | 0.00 | 0.00 | 0.00 | 79 | 1022.3 |
| 20260502091004 | 20 | 43 | 3.2 | 9.7 | 0.00 | 0.00 | 0.00 | 79 | 1022.3 |
| 20260502090503 | 20 | 43 | 3.2 | 11.3 | 0.00 | 0.00 | 0.00 | 79 | 1022.3 |
| 20260502071524 | 18 | 49 | 0.0 | 1.6 | 0.00 | 0.00 | 0.00 | 83 | 1022.3 |
| 20260502071003 | 18 | 0 | 0.0 | 0.0 | 0.00 | 0.00 | 0.00 | 83 | 1022.3 |
| 20260502070503 | 18 | 0 | 0.0 | 0.0 | 0.00 | 0.00 | 0.00 | 85 | 1022.3 |
| 20260502070004 | 18 | 0 | 0.0 | 0.0 | 0.00 | 0.00 | 0.00 | 85 | 1022.3 |
| 20260502065503 | 18 | 0 | 0.0 | 0.0 | 0.00 | 0.00 | 0.00 | 83 | 1022.3 |
| 20260502065003 | 18 | 0 | 0.0 | 0.0 | 0.00 | 0.00 | 0.00 | 83 | 1022.2 |
| 20260502064524 | 18 | 0 | 0.0 | 0.0 | 0.00 | 0.00 | 0.00 | 85 | 1022.3 |
| 20260502064003 | 18 | 0 | 0.0 | 0.0 | 0.00 | 0.00 | 0.00 | 85 | 1022.4 |
| 20260502063503 | 18 | 0 | 0.0 | 0.0 | 0.00 | 0.00 | 0.00 | 85 | 1022.4 |
| 20260502063024 | 18 | 0 | 0.0 | 0.0 | 0.00 | 0.00 | 0.00 | 85 | 1022.1 |
| 20260502062503 | 18 | 0 | 0.0 | 0.0 | 0.00 | 0.00 | 0.00 | 85 | 1022.3 |
| 20260502062024 | 18 | 0 | 0.0 | 0.0 | 0.00 | 0.00 | 0.00 | 87 | 1022.2 |